Climatologie pour Saint-Brevin les Pins
Jour • Résumé pour mars 27, 2017 Système :  Métrique    Anglais   Mixte
« - 1 jour
+ 1 jour »
Jour Semaine Mois Année Personnalisé
  Maximum : Minimum : Moyenne :
Température sous abri : -17.8 °C -13.8 °C -10.7 °C
Point de rosée : -17.8 °C -15 °C -13.7 °C
Humidité : Humidity % 49 % 71 %
Vitesse du vent : 0 km/h 2.6 km/h 12.1 km/h
Rafale : 0 km/h - -
Direction :- - SE
Pression : 0 hPa 34395 hPa -
Précipitations : 0 mm    
Historical Graphs
 
 
Tableau de données pour mars 27, 2017
Heure Tempé Pt rosée Pression Vent Vitesse Rafale Humidité Taux pluie (/hr) Soleil
-17.8 °C -17.8 °C 0 hPa Calm     Humidity % 0 mm SolarRadiationWatts/m^2 W/m2 Conditions
00:00 -12.3 °C -13.6 °C 34452.6 hPa ENE 5.1 km/h 18.2 km/h 85 % 0 mm 0 W/m2
00:10 -12.3 °C -13.7 °C 34452.6 hPa East 7.7 km/h 18.2 km/h 85 % 0 mm 0 W/m2
00:15 -12.3 °C -13.7 °C 34452.6 hPa ENE 7.7 km/h 18.2 km/h 85 % 0 mm 0 W/m2
00:20 -12.3 °C -13.7 °C 34452.6 hPa East 12.9 km/h 18.2 km/h 85 % 0 mm 0 W/m2
00:25 -12.4 °C -13.9 °C 34452.6 hPa ESE 5.1 km/h 18.2 km/h 84 % 0 mm 0 W/m2
00:30 -12.4 °C -13.8 °C 34452.6 hPa ESE 7.7 km/h 18.2 km/h 84 % 0 mm 0 W/m2
00:35 -12.4 °C -13.8 °C 34452.6 hPa ESE 10.3 km/h 23.3 km/h 84 % 0 mm 0 W/m2
00:40 -12.3 °C -13.9 °C 34442.4 hPa East 12.9 km/h 23.3 km/h 83 % 0 mm 0 W/m2
00:50 -12.3 °C -13.8 °C 34442.4 hPa ENE 10.3 km/h 18.2 km/h 83 % 0 mm 0 W/m2
00:55 -12.3 °C -13.9 °C 34442.4 hPa ESE 12.9 km/h 18.2 km/h 82 % 0 mm 0 W/m2
01:00 -12.3 °C -13.9 °C 34442.4 hPa ESE 7.7 km/h 18.2 km/h 82 % 0 mm 0 W/m2
01:05 -12.3 °C -13.9 °C 34442.4 hPa East 7.7 km/h 20.8 km/h 82 % 0 mm 0 W/m2
01:10 -12.3 °C -14 °C 34442.4 hPa East 7.7 km/h 20.8 km/h 81 % 0 mm 0 W/m2
01:15 -12.3 °C -14 °C 34442.4 hPa East 18.2 km/h 20.8 km/h 81 % 0 mm 0 W/m2
01:20 -12.2 °C -14.1 °C 34442.4 hPa ESE 12.9 km/h 23.3 km/h 80 % 0 mm 0 W/m2
01:25 -12.2 °C -14 °C 34442.4 hPa East 15.6 km/h 23.3 km/h 80 % 0 mm 0 W/m2
01:30 -12.1 °C -14.1 °C 34442.4 hPa East 15.6 km/h 20.8 km/h 79 % 0 mm 0 W/m2
01:35 -12.1 °C -14.2 °C 34452.6 hPa ESE 12.9 km/h 20.8 km/h 78 % 0 mm 0 W/m2
01:40 -12.1 °C -14.2 °C 34452.6 hPa ESE 7.7 km/h 20.8 km/h 78 % 0 mm 0 W/m2
01:45 -12.1 °C -14.2 °C 34452.6 hPa ESE 12.9 km/h 20.8 km/h 78 % 0 mm 0 W/m2
01:50 -12.2 °C -14.2 °C 34452.6 hPa ESE 5.1 km/h 18.2 km/h 78 % 0 mm 0 W/m2
01:55 -12.2 °C -14.2 °C 34452.6 hPa ESE 10.3 km/h 20.8 km/h 78 % 0 mm 0 W/m2
02:00 -12.3 °C -14.3 °C 34452.6 hPa ESE 10.3 km/h 20.8 km/h 78 % 0 mm 0 W/m2
02:05 -12.2 °C -14.2 °C 34452.6 hPa ESE 10.3 km/h 25.9 km/h 78 % 0 mm 0 W/m2
02:10 -12.2 °C -14.3 °C 34452.6 hPa East 7.7 km/h 25.9 km/h 77 % 0 mm 0 W/m2
02:15 -12.3 °C -14.4 °C 34452.6 hPa East 12.9 km/h 20.8 km/h 77 % 0 mm 0 W/m2
02:20 -12.3 °C -14.4 °C 34442.4 hPa ESE 5.1 km/h 18.2 km/h 77 % 0 mm 0 W/m2
02:25 -12.3 °C -14.4 °C 34452.6 hPa ESE 7.7 km/h 18.2 km/h 77 % 0 mm 0 W/m2
02:30 -12.3 °C -14.4 °C 34452.6 hPa ESE 10.3 km/h 20.8 km/h 78 % 0 mm 0 W/m2
02:35 -12.3 °C -14.5 °C 34452.6 hPa ESE 12.9 km/h 23.3 km/h 77 % 0 mm 0 W/m2
02:40 -12.3 °C -14.4 °C 34452.6 hPa East 5.1 km/h 23.3 km/h 77 % 0 mm 0 W/m2
02:45 -12.3 °C -14.4 °C 34442.4 hPa East 5.1 km/h 23.3 km/h 77 % 0 mm 0 W/m2
02:50 -12.3 °C -14.4 °C 34442.4 hPa East 7.7 km/h 23.3 km/h 77 % 0 mm 0 W/m2
02:55 -12.3 °C -14.5 °C 34442.4 hPa East 15.6 km/h 20.8 km/h 76 % 0 mm 0 W/m2
03:00 -12.3 °C -14.6 °C 34442.4 hPa ESE 18.2 km/h 25.9 km/h 76 % 0 mm 0 W/m2
03:05 -12.3 °C -14.5 °C 34442.4 hPa ESE 12.9 km/h 25.9 km/h 77 % 0 mm 0 W/m2
03:10 -12.3 °C -14.6 °C 34442.4 hPa SE 5.1 km/h 20.8 km/h 76 % 0 mm 0 W/m2
03:15 -12.3 °C -14.6 °C 34442.4 hPa ESE 5.1 km/h 20.8 km/h 76 % 0 mm 0 W/m2
03:20 -12.4 °C -14.5 °C 34442.4 hPa ESE 12.9 km/h 23.3 km/h 77 % 0 mm 0 W/m2
03:25 -12.4 °C -14.6 °C 34442.4 hPa East 5.1 km/h 23.3 km/h 77 % 0 mm 0 W/m2
03:30 -12.5 °C -14.6 °C 34442.4 hPa ESE 12.9 km/h 23.3 km/h 77 % 0 mm 0 W/m2
03:35 -12.6 °C -14.6 °C 34428.8 hPa ESE 5.1 km/h 23.3 km/h 78 % 0 mm 0 W/m2
03:40 -12.6 °C -14.6 °C 34428.8 hPa ESE 15.6 km/h 20.8 km/h 78 % 0 mm 0 W/m2
03:45 -12.6 °C -14.6 °C 34428.8 hPa East 5.1 km/h 20.8 km/h 78 % 0 mm 0 W/m2
03:50 -12.6 °C -14.6 °C 34428.8 hPa East 7.7 km/h 20.8 km/h 78 % 0 mm 0 W/m2
03:55 -12.6 °C -14.6 °C 34428.8 hPa ESE 7.7 km/h 20.8 km/h 78 % 0 mm 0 W/m2
04:00 -12.6 °C -14.6 °C 34428.8 hPa SE 7.7 km/h 20.8 km/h 78 % 0 mm 0 W/m2
04:05 -12.6 °C -14.6 °C 34428.8 hPa ESE 10.3 km/h 20.8 km/h 78 % 0 mm 0 W/m2
04:10 -12.6 °C -14.7 °C 34418.7 hPa ESE 2.6 km/h 20.8 km/h 78 % 0 mm 0 W/m2
04:15 -12.7 °C -14.7 °C 34418.7 hPa ESE 7.7 km/h 18.2 km/h 78 % 0 mm 0 W/m2
04:20 -12.7 °C -14.7 °C 34418.7 hPa East 7.7 km/h 15.6 km/h 79 % 0 mm 0 W/m2
04:25 -12.7 °C -14.7 °C 34418.7 hPa East 10.3 km/h 18.2 km/h 79 % 0 mm 0 W/m2
04:30 -12.7 °C -14.7 °C 34405.1 hPa ESE 15.6 km/h 20.8 km/h 79 % 0 mm 0 W/m2
04:35 -12.7 °C -14.6 °C 34405.1 hPa East 12.9 km/h 20.8 km/h 79 % 0 mm 0 W/m2
04:40 -12.7 °C -14.6 °C 34405.1 hPa ENE 2.6 km/h 20.8 km/h 79 % 0 mm 0 W/m2
04:45 -12.7 °C -14.7 °C 34405.1 hPa East 5.1 km/h 20.8 km/h 79 % 0 mm 0 W/m2
04:50 -12.8 °C -14.7 °C 34405.1 hPa East 18.2 km/h 20.8 km/h 79 % 0 mm 0 W/m2
04:55 -12.8 °C -14.7 °C 34405.1 hPa East 15.6 km/h 20.8 km/h 79 % 0 mm 0 W/m2
05:00 -12.8 °C -14.7 °C 34405.1 hPa East 5.1 km/h 23.3 km/h 79 % 0 mm 0 W/m2
05:05 -12.8 °C -14.7 °C 34405.1 hPa East 2.6 km/h 23.3 km/h 79 % 0 mm 0 W/m2
05:10 -12.8 °C -14.7 °C 34405.1 hPa ESE 7.7 km/h 20.8 km/h 79 % 0 mm 0 W/m2
05:20 -12.7 °C -14.7 °C 34395 hPa ESE 12.9 km/h 20.8 km/h 79 % 0 mm 0 W/m2
05:25 -12.8 °C -14.7 °C 34395 hPa East 12.9 km/h 20.8 km/h 79 % 0 mm 0 W/m2
05:30 -12.8 °C -14.8 °C 34395 hPa ENE 23.3 km/h 23.3 km/h 79 % 0 mm 0 W/m2
05:35 -12.9 °C -14.7 °C 34395 hPa East 10.3 km/h 23.3 km/h 80 % 0 mm 0 W/m2
05:40 -13.1 °C -14.8 °C 34405.1 hPa ENE 5.1 km/h 18.2 km/h 81 % 0 mm 0 W/m2
05:45 -13.3 °C -14.9 °C 34405.1 hPa East 5.1 km/h 18.2 km/h 82 % 0 mm 0 W/m2
05:50 -13.4 °C -14.9 °C 34405.1 hPa ENE 5.1 km/h 15.6 km/h 83 % 0 mm 0 W/m2
05:55 -13.5 °C -14.9 °C 34405.1 hPa East 5.1 km/h 12.9 km/h 84 % 0 mm 0 W/m2
06:00 -13.6 °C -15 °C 34405.1 hPa ENE 2.6 km/h 12.9 km/h 84 % 0 mm 0 W/m2
06:05 -13.7 °C -15 °C 34405.1 hPa East 5.1 km/h 15.6 km/h 85 % 0 mm 0 W/m2
06:10 -13.7 °C -15 °C 34405.1 hPa East 7.7 km/h 18.2 km/h 85 % 0 mm 0 W/m2
06:15 -13.7 °C -14.8 °C 34405.1 hPa East 12.9 km/h 18.2 km/h 86 % 0 mm 0 W/m2
06:20 -13.7 °C -14.8 °C 34405.1 hPa ENE 5.1 km/h 18.2 km/h 86 % 0 mm 0 W/m2
06:25 -13.7 °C -14.9 °C 34405.1 hPa ENE 7.7 km/h 18.2 km/h 86 % 0 mm 0 W/m2
06:30 -13.7 °C -14.9 °C 34405.1 hPa East 7.7 km/h 18.2 km/h 86 % 0 mm 0 W/m2
06:35 -13.7 °C -14.9 °C 34405.1 hPa East 12.9 km/h 20.8 km/h 86 % 0 mm 0 W/m2
06:40 -13.7 °C -14.8 °C 34405.1 hPa ENE 7.7 km/h 23.3 km/h 87 % 0 mm 0 W/m2
06:45 -13.7 °C -14.8 °C 34405.1 hPa East 12.9 km/h 23.3 km/h 87 % 0 mm 0 W/m2
06:50 -13.7 °C -14.8 °C 34405.1 hPa East 12.9 km/h 23.3 km/h 87 % 0 mm 0 W/m2
06:55 -13.7 °C -14.8 °C 34405.1 hPa East 7.7 km/h 23.3 km/h 87 % 0 mm 0 W/m2
07:00 -13.7 °C -14.8 °C 34418.7 hPa East 12.9 km/h 23.3 km/h 87 % 0 mm 0 W/m2
07:05 -13.7 °C -14.9 °C 34405.1 hPa East 7.7 km/h 23.3 km/h 86 % 0 mm 0 W/m2
07:10 -13.7 °C -14.9 °C 34418.7 hPa East 12.9 km/h 20.8 km/h 86 % 0 mm 0 W/m2
07:15 -13.7 °C -14.9 °C 34418.7 hPa East 5.1 km/h 20.8 km/h 86 % 0 mm 0 W/m2
07:20 -13.8 °C -15 °C 34418.7 hPa East 5.1 km/h 23.3 km/h 86 % 0 mm 0 W/m2
07:25 -13.8 °C -14.9 °C 34418.7 hPa ENE 5.1 km/h 23.3 km/h 87 % 0 mm 0 W/m2
07:30 -13.8 °C -14.9 °C 34418.7 hPa East 2.6 km/h 18.2 km/h 87 % 0 mm 0 W/m2
07:35 -13.8 °C -14.9 °C 34418.7 hPa East 5.1 km/h 18.2 km/h 87 % 0 mm 0 W/m2
07:40 -13.7 °C -14.9 °C 34418.7 hPa ESE 5.1 km/h 18.2 km/h 86 % 0 mm 0 W/m2
07:45 -13.7 °C -14.9 °C 34418.7 hPa East 7.7 km/h 20.8 km/h 86 % 0 mm 0 W/m2
07:50 -13.7 °C -14.9 °C 34418.7 hPa ESE 5.1 km/h 20.8 km/h 86 % 0 mm 0 W/m2
07:55 -13.7 °C -14.8 °C 34418.7 hPa East 5.1 km/h 18.2 km/h 86 % 0 mm 0 W/m2
08:00 -13.7 °C -14.9 °C 34418.7 hPa East 5.1 km/h 20.8 km/h 86 % 0 mm 5 W/m2
08:05 -13.7 °C -14.9 °C 34428.8 hPa East 12.9 km/h 20.8 km/h 86 % 0 mm 7 W/m2
08:10 -13.7 °C -14.9 °C 34428.8 hPa ENE 5.1 km/h 18.2 km/h 86 % 0 mm 11 W/m2
08:15 -13.7 °C -14.9 °C 34418.7 hPa East 5.1 km/h 18.2 km/h 86 % 0 mm 16 W/m2
08:20 -13.7 °C -14.9 °C 34428.8 hPa East 5.1 km/h 18.2 km/h 86 % 0 mm 18 W/m2
08:25 -13.7 °C -14.8 °C 34428.8 hPa East 5.1 km/h 18.2 km/h 86 % 0 mm 19 W/m2
08:30 -13.7 °C -14.9 °C 34428.8 hPa ENE 7.7 km/h 15.6 km/h 85 % 0 mm 21 W/m2
08:35 -13.6 °C -14.9 °C 34418.7 hPa ENE 10.3 km/h 20.8 km/h 85 % 0 mm 23 W/m2
08:40 -13.6 °C -14.9 °C 34418.7 hPa East 7.7 km/h 23.3 km/h 85 % 0 mm 23 W/m2
08:45 -13.5 °C -14.8 °C 34418.7 hPa ENE 18.2 km/h 23.3 km/h 85 % 0 mm 25 W/m2
08:50 -13.4 °C -14.8 °C 34418.7 hPa ENE 12.9 km/h 20.8 km/h 84 % 0 mm 28 W/m2
08:55 -13.4 °C -14.8 °C 34418.7 hPa East 12.9 km/h 20.8 km/h 84 % 0 mm 30 W/m2
09:00 -13.2 °C -14.7 °C 34418.7 hPa East 5.1 km/h 18.2 km/h 83 % 0 mm 39 W/m2
09:05 -13.2 °C -14.7 °C 34418.7 hPa SE 7.7 km/h 20.8 km/h 83 % 0 mm 135 W/m2
09:10 -13.1 °C -14.7 °C 34428.8 hPa ESE 12.9 km/h 23.3 km/h 82 % 0 mm 155 W/m2
09:15 -12.9 °C -14.5 °C 34428.8 hPa East 15.6 km/h 23.3 km/h 82 % 0 mm 169 W/m2
09:20 -12.7 °C -14.4 °C 34428.8 hPa East 7.7 km/h 23.3 km/h 81 % 0 mm 188 W/m2
09:25 -12.6 °C -14.3 °C 34418.7 hPa ENE 5.1 km/h 23.3 km/h 80 % 0 mm 197 W/m2
09:30 -12.4 °C -14.3 °C 34418.7 hPa East 7.7 km/h 20.8 km/h 79 % 0 mm 213 W/m2
09:35 -12.3 °C -14.3 °C 34418.7 hPa SE 15.6 km/h 23.3 km/h 78 % 0 mm 244 W/m2
09:40 -12.1 °C -14.2 °C 34418.7 hPa ESE 18.2 km/h 28.5 km/h 77 % 0 mm 258 W/m2
09:45 -11.8 °C -14.1 °C 34418.7 hPa East 28.5 km/h 28.5 km/h 76 % 0 mm 109 W/m2
09:50 -11.7 °C -14.1 °C 34418.7 hPa East 20.8 km/h 28.5 km/h 75 % 0 mm 35 W/m2
09:55 -11.6 °C -13.9 °C 34418.7 hPa East 12.9 km/h 23.3 km/h 75 % 0 mm 37 W/m2
10:00 -11.4 °C -13.9 °C 34418.7 hPa East 5.1 km/h 28.5 km/h 74 % 0 mm 37 W/m2
10:05 -11.3 °C -13.9 °C 34418.7 hPa ENE 7.7 km/h 28.5 km/h 73 % 0 mm 327 W/m2
10:10 -11.2 °C -13.8 °C 34405.1 hPa East 15.6 km/h 28.5 km/h 72 % 0 mm 350 W/m2
10:15 -10.9 °C -13.8 °C 34405.1 hPa ESE 7.7 km/h 28.5 km/h 71 % 0 mm 364 W/m2
10:20 -10.8 °C -13.8 °C 34405.1 hPa East 15.6 km/h 28.5 km/h 69 % 0 mm 380 W/m2
10:30 -10.4 °C -13.6 °C 34405.1 hPa ENE 10.3 km/h 36.2 km/h 68 % 0 mm 408 W/m2
10:35 -10.3 °C -13.6 °C 34405.1 hPa ESE 15.6 km/h 36.2 km/h 67 % 0 mm 420 W/m2
10:40 -10.2 °C -13.5 °C 34405.1 hPa East 7.7 km/h 36.2 km/h 67 % 0 mm 436 W/m2
10:45 -10.1 °C -13.5 °C 34405.1 hPa ESE 18.2 km/h 36.2 km/h 66 % 0 mm 450 W/m2
10:50 -9.9 °C -13.3 °C 34405.1 hPa SE 10.3 km/h 33.6 km/h 66 % 0 mm 464 W/m2
10:55 -9.8 °C -13.4 °C 34405.1 hPa ESE 18.2 km/h 28.5 km/h 65 % 0 mm 476 W/m2
11:00 -9.6 °C -13.4 °C 34405.1 hPa ESE 18.2 km/h 28.5 km/h 64 % 0 mm 489 W/m2
11:05 -9.5 °C -13.4 °C 34405.1 hPa East 10.3 km/h 36.2 km/h 63 % 0 mm 501 W/m2
11:10 -9.5 °C -13.3 °C 34405.1 hPa East 15.6 km/h 36.2 km/h 63 % 0 mm 513 W/m2
11:15 -9.3 °C -13.3 °C 34405.1 hPa East 20.8 km/h 36.2 km/h 62 % 0 mm 526 W/m2
11:20 -9.2 °C -13.1 °C 34405.1 hPa ESE 20.8 km/h 31.1 km/h 63 % 0 mm 538 W/m2
11:25 -9 °C -13.2 °C 34405.1 hPa ESE 36.2 km/h 41.4 km/h 61 % 0 mm 550 W/m2
11:30 -8.8 °C -13.2 °C 34405.1 hPa SE 5.1 km/h 41.4 km/h 60 % 0 mm 561 W/m2
11:35 -8.7 °C -13.1 °C 34405.1 hPa East 20.8 km/h 36.2 km/h 60 % 0 mm 571 W/m2
11:40 -8.7 °C -13.3 °C 34418.7 hPa ESE 7.7 km/h 36.2 km/h 58 % 0 mm 582 W/m2
11:45 -8.6 °C -13.2 °C 34418.7 hPa East 20.8 km/h 41.4 km/h 58 % 0 mm 594 W/m2
11:50 -8.5 °C -13.2 °C 34418.7 hPa ESE 20.8 km/h 41.4 km/h 57 % 0 mm 603 W/m2
11:55 -8.4 °C -13 °C 34418.7 hPa ESE 10.3 km/h 36.2 km/h 58 % 0 mm 613 W/m2
12:00 -8.3 °C -13.2 °C 34405.1 hPa ESE 31.1 km/h 36.2 km/h 56 % 0 mm 624 W/m2
12:05 -8.3 °C -13.1 °C 34418.7 hPa ESE 10.3 km/h 41.4 km/h 57 % 0 mm 633 W/m2
12:10 -8.2 °C -13.1 °C 34418.7 hPa SE 23.3 km/h 41.4 km/h 56 % 0 mm 640 W/m2
12:15 -8 °C -13.1 °C 34418.7 hPa East 20.8 km/h 36.2 km/h 55 % 0 mm 649 W/m2
12:20 -7.9 °C -13.1 °C 34418.7 hPa ESE 18.2 km/h 36.2 km/h 54 % 0 mm 657 W/m2
12:25 -7.8 °C -13.5 °C 34418.7 hPa ESE 36.2 km/h 38.8 km/h 51 % 0 mm 663 W/m2
12:30 -7.8 °C -13.3 °C 34418.7 hPa ESE 23.3 km/h 38.8 km/h 52 % 0 mm 670 W/m2
12:35 -7.6 °C -12.8 °C 34405.1 hPa ESE 23.3 km/h 36.2 km/h 54 % 0 mm 679 W/m2
12:40 -7.6 °C -13.1 °C 34405.1 hPa East 23.3 km/h 36.2 km/h 52 % 0 mm 686 W/m2
12:45 -7.5 °C -13.1 °C 34405.1 hPa SSE 25.9 km/h 36.2 km/h 52 % 0 mm 694 W/m2
12:50 -7.7 °C -13.6 °C 34405.1 hPa SSE 7.7 km/h 41.4 km/h 50 % 0 mm 700 W/m2
12:55 -7.4 °C -13.2 °C 34405.1 hPa East 18.2 km/h 41.4 km/h 51 % 0 mm 707 W/m2
13:00 -7.5 °C -13.2 °C 34405.1 hPa SE 20.8 km/h 33.6 km/h 51 % 0 mm 712 W/m2
13:05 -7.4 °C -13.4 °C 34405.1 hPa SE 10.3 km/h 36.2 km/h 50 % 0 mm 717 W/m2
13:15 -7.4 °C -13.1 °C 34405.1 hPa SSE 15.6 km/h 36.2 km/h 52 % 0 mm 722 W/m2
13:20 -7.4 °C -13.1 °C 34405.1 hPa SSE 23.3 km/h 36.2 km/h 51 % 0 mm 728 W/m2
13:25 -7.3 °C -12.6 °C 34405.1 hPa SSE 10.3 km/h 28.5 km/h 54 % 0 mm 744 W/m2
13:30 -7.3 °C -12.6 °C 34405.1 hPa SE 15.6 km/h 36.2 km/h 54 % 0 mm 742 W/m2
13:35 -7.2 °C -12.6 °C 34405.1 hPa ESE 18.2 km/h 36.2 km/h 53 % 0 mm 744 W/m2
13:40 -7.1 °C -13 °C 34405.1 hPa ENE 7.7 km/h 31.1 km/h 50 % 0 mm 745 W/m2
13:50 -6.8 °C -12.5 °C 34395 hPa ESE 18.2 km/h 33.6 km/h 52 % 0 mm 749 W/m2
13:55 -7.1 °C -12.4 °C 34395 hPa SE 20.8 km/h 23.3 km/h 54 % 0 mm 745 W/m2
14:00 -6.9 °C -12.2 °C 34395 hPa ESE 23.3 km/h 25.9 km/h 54 % 0 mm 747 W/m2
14:05 -6.8 °C -12.6 °C 34405.1 hPa ESE 18.2 km/h 25.9 km/h 51 % 0 mm 744 W/m2
14:10 -7 °C -12.8 °C 34405.1 hPa SE 10.3 km/h 25.9 km/h 51 % 0 mm 744 W/m2
14:15 -7 °C -12.8 °C 34405.1 hPa South 20.8 km/h 25.9 km/h 51 % 0 mm 742 W/m2
14:20 -7.1 °C -12.8 °C 34405.1 hPa SSE 18.2 km/h 31.1 km/h 51 % 0 mm 740 W/m2
14:25 -7 °C -12.8 °C 34405.1 hPa SE 18.2 km/h 31.1 km/h 51 % 0 mm 738 W/m2
14:30 -7 °C -12.8 °C 34405.1 hPa SSE 18.2 km/h 28.5 km/h 51 % 0 mm 737 W/m2
14:35 -7 °C -12.4 °C 34405.1 hPa SSE 18.2 km/h 28.5 km/h 53 % 0 mm 737 W/m2
14:40 -6.7 °C -12.1 °C 34405.1 hPa SSE 10.3 km/h 25.9 km/h 54 % 0 mm 708 W/m2
14:45 -6.8 °C -12.6 °C 34395 hPa ENE 10.3 km/h 25.9 km/h 51 % 0 mm 721 W/m2
14:50 -6.8 °C -12.6 °C 34405.1 hPa SSE 10.3 km/h 23.3 km/h 51 % 0 mm 735 W/m2
14:55 -6.8 °C -12.5 °C 34405.1 hPa SSE 15.6 km/h 31.1 km/h 52 % 0 mm 726 W/m2
15:00 -6.7 °C -12.4 °C 34405.1 hPa South 7.7 km/h 31.1 km/h 51 % 0 mm 715 W/m2
15:05 -6.5 °C -12.3 °C 34405.1 hPa SE 15.6 km/h 28.5 km/h 51 % 0 mm 722 W/m2
15:10 -6.6 °C -12.3 °C 34395 hPa East 7.7 km/h 28.5 km/h 52 % 0 mm 712 W/m2
15:15 -6.8 °C -12.9 °C 34395 hPa South 7.7 km/h 28.5 km/h 49 % 0 mm 670 W/m2
15:20 -6.8 °C -12.9 °C 34395 hPa South 15.6 km/h 28.5 km/h 49 % 0 mm 647 W/m2
15:25 -6.7 °C -12.7 °C 34395 hPa SSE 7.7 km/h 20.8 km/h 50 % 0 mm 657 W/m2
15:30 -6.7 °C -12.6 °C 34395 hPa WSW 7.7 km/h 23.3 km/h 50 % 0 mm 671 W/m2
15:35 -6.8 °C -12.4 °C 34395 hPa South 12.9 km/h 23.3 km/h 52 % 0 mm 677 W/m2
15:40 -6.8 °C -12 °C 34405.1 hPa SSW 7.7 km/h 31.1 km/h 55 % 0 mm 679 W/m2
15:45 -7.7 °C -12.3 °C 34405.1 hPa WSW 18.2 km/h 31.1 km/h 58 % 0 mm 668 W/m2
15:50 -8 °C -12.3 °C 34405.1 hPa SSW 18.2 km/h 33.6 km/h 61 % 0 mm 657 W/m2
15:55 -8.1 °C -12.2 °C 34405.1 hPa SW 23.3 km/h 33.6 km/h 62 % 0 mm 615 W/m2
16:00 -8.2 °C -12.6 °C 34405.1 hPa SE 18.2 km/h 28.5 km/h 60 % 0 mm 592 W/m2
16:05 -8.3 °C -12.7 °C 34405.1 hPa SW 15.6 km/h 33.6 km/h 60 % 0 mm 610 W/m2
16:10 -8.3 °C -12.8 °C 34405.1 hPa SW 10.3 km/h 33.6 km/h 59 % 0 mm 554 W/m2
16:15 -8.2 °C -12.7 °C 34418.7 hPa SW 28.5 km/h 31.1 km/h 59 % 0 mm 615 W/m2
16:20 -8.1 °C -12.8 °C 34418.7 hPa SW 18.2 km/h 31.1 km/h 58 % 0 mm 615 W/m2
16:25 -8 °C -12.8 °C 34418.7 hPa SSW 10.3 km/h 28.5 km/h 57 % 0 mm 587 W/m2
16:30 -8 °C -12.9 °C 34418.7 hPa SSW 12.9 km/h 23.3 km/h 56 % 0 mm 596 W/m2
16:35 -8.2 °C -12.8 °C 34418.7 hPa SW 15.6 km/h 25.9 km/h 58 % 0 mm 580 W/m2
16:40 -8.3 °C -12.8 °C 34418.7 hPa SSE 10.3 km/h 25.9 km/h 59 % 0 mm 561 W/m2
16:45 -8.2 °C -12.7 °C 34418.7 hPa WSW 2.6 km/h 20.8 km/h 59 % 0 mm 543 W/m2
16:50 -8.1 °C -12.7 °C 34418.7 hPa South 12.9 km/h 25.9 km/h 58 % 0 mm 541 W/m2
16:55 -8.1 °C -12.7 °C 34418.7 hPa SSW 7.7 km/h 28.5 km/h 58 % 0 mm 531 W/m2
17:00 -8.3 °C -12.8 °C 34418.7 hPa South 23.3 km/h 28.5 km/h 59 % 0 mm 512 W/m2
17:05 -8.3 °C -13.2 °C 34418.7 hPa WSW 15.6 km/h 36.2 km/h 56 % 0 mm 492 W/m2
17:10 -8.3 °C -12.9 °C 34418.7 hPa SSW 20.8 km/h 36.2 km/h 58 % 0 mm 471 W/m2
17:15 -8.2 °C -12.8 °C 34418.7 hPa SSW 12.9 km/h 28.5 km/h 58 % 0 mm 480 W/m2
17:20 -8.4 °C -12.8 °C 34418.7 hPa South 23.3 km/h 28.5 km/h 59 % 0 mm 432 W/m2
17:25 -8.4 °C -12.9 °C 34428.8 hPa South 12.9 km/h 31.1 km/h 59 % 0 mm 420 W/m2
17:30 -8.4 °C -12.8 °C 34428.8 hPa SW 15.6 km/h 31.1 km/h 59 % 0 mm 221 W/m2
17:35 -8.4 °C -13.1 °C 34428.8 hPa SW 12.9 km/h 33.6 km/h 58 % 0 mm 199 W/m2
17:40 -8.4 °C -13 °C 34428.8 hPa South 25.9 km/h 33.6 km/h 58 % 0 mm 167 W/m2
17:45 -8.4 °C -13.2 °C 34428.8 hPa SSW 15.6 km/h 28.5 km/h 57 % 0 mm 190 W/m2
17:50 -8.4 °C -13.2 °C 34428.8 hPa West 10.3 km/h 31.1 km/h 57 % 0 mm 207 W/m2
17:55 -8.5 °C -13.2 °C 34428.8 hPa WSW 18.2 km/h 33.6 km/h 57 % 0 mm 185 W/m2
18:00 -8.7 °C -13.4 °C 34428.8 hPa SSW 12.9 km/h 33.6 km/h 57 % 0 mm 109 W/m2
18:05 -8.7 °C -13.5 °C 34442.4 hPa South 18.2 km/h 31.1 km/h 57 % 0 mm 244 W/m2
18:10 -8.7 °C -13.3 °C 34428.8 hPa SSW 15.6 km/h 33.6 km/h 58 % 0 mm 158 W/m2
18:15 -8.8 °C -13.6 °C 34428.8 hPa SW 15.6 km/h 33.6 km/h 57 % 0 mm 172 W/m2
18:20 -8.8 °C -13.6 °C 34428.8 hPa SSW 2.6 km/h 33.6 km/h 57 % 0 mm 183 W/m2
18:25 -8.9 °C -13.5 °C 34428.8 hPa SW 7.7 km/h 33.6 km/h 58 % 0 mm 97 W/m2
18:30 -8.9 °C -13.1 °C 34428.8 hPa WSW 12.9 km/h 28.5 km/h 61 % 0 mm 149 W/m2
18:35 -8.9 °C -13.1 °C 34428.8 hPa SW 18.2 km/h 25.9 km/h 61 % 0 mm 151 W/m2
18:40 -8.9 °C -12.9 °C 34428.8 hPa South 15.6 km/h 23.3 km/h 62 % 0 mm 213 W/m2
18:45 -8.9 °C -13.1 °C 34428.8 hPa WSW 10.3 km/h 28.5 km/h 61 % 0 mm 218 W/m2
18:50 -9 °C -12.9 °C 34428.8 hPa SSW 15.6 km/h 33.6 km/h 63 % 0 mm 134 W/m2
18:55 -9.1 °C -12.9 °C 34428.8 hPa South 20.8 km/h 36.2 km/h 63 % 0 mm 105 W/m2
19:00 -9.1 °C -12.9 °C 34442.4 hPa SSW 5.1 km/h 36.2 km/h 63 % 0 mm 95 W/m2
19:05 -9.1 °C -13.1 °C 34442.4 hPa SSW 18.2 km/h 36.2 km/h 63 % 0 mm 90 W/m2
19:10 -9.2 °C -12.9 °C 34428.8 hPa South 12.9 km/h 28.5 km/h 64 % 0 mm 100 W/m2
19:15 -9.3 °C -13.2 °C 34428.8 hPa South 20.8 km/h 31.1 km/h 63 % 0 mm 104 W/m2
19:20 -9.3 °C -13.2 °C 34428.8 hPa SW 10.3 km/h 31.1 km/h 63 % 0 mm 53 W/m2
19:25 -9.3 °C -13 °C 34428.8 hPa South 10.3 km/h 20.8 km/h 64 % 0 mm 40 W/m2
19:30 -9.3 °C -13.1 °C 34442.4 hPa SSE 12.9 km/h 18.2 km/h 64 % 0 mm 37 W/m2
19:35 -9.3 °C -13.1 °C 34442.4 hPa SSW 12.9 km/h 31.1 km/h 64 % 0 mm 33 W/m2
19:40 -9.4 °C -13.2 °C 34442.4 hPa South 25.9 km/h 31.1 km/h 64 % 0 mm 30 W/m2
19:45 -9.6 °C -13.1 °C 34442.4 hPa SSW 10.3 km/h 28.5 km/h 66 % 0 mm 28 W/m2
19:50 -9.6 °C -13 °C 34452.6 hPa SSW 10.3 km/h 25.9 km/h 67 % 0 mm 25 W/m2
19:55 -9.7 °C -13.1 °C 34452.6 hPa South 15.6 km/h 25.9 km/h 67 % 0 mm 21 W/m2
20:00 -9.8 °C -13 °C 34452.6 hPa South 7.7 km/h 25.9 km/h 68 % 0 mm 19 W/m2
20:05 -9.9 °C -13.1 °C 34452.6 hPa SSW 15.6 km/h 25.9 km/h 69 % 0 mm 18 W/m2
20:10 -9.9 °C -12.9 °C 34452.6 hPa South 5.1 km/h 25.9 km/h 70 % 0 mm 16 W/m2
20:15 -10.1 °C -13.1 °C 34452.6 hPa South 15.6 km/h 28.5 km/h 70 % 0 mm 14 W/m2
20:20 -10.1 °C -13 °C 34452.6 hPa South 10.3 km/h 28.5 km/h 71 % 0 mm 11 W/m2
20:25 -10.2 °C -12.9 °C 34452.6 hPa South 12.9 km/h 20.8 km/h 72 % 0 mm 7 W/m2
20:30 -10.4 °C -13.1 °C 34452.6 hPa SSE 7.7 km/h 20.8 km/h 73 % 0 mm 0 W/m2
20:35 -10.5 °C -13.1 °C 34452.6 hPa South 7.7 km/h 20.8 km/h 74 % 0 mm 0 W/m2
20:40 -10.6 °C -13 °C 34452.6 hPa SSE 7.7 km/h 20.8 km/h 75 % 0 mm 0 W/m2
20:45 -10.7 °C -13.1 °C 34452.6 hPa South 12.9 km/h 15.6 km/h 75 % 0 mm 0 W/m2
20:50 -10.8 °C -13.1 °C 34452.6 hPa SSE 7.7 km/h 15.6 km/h 76 % 0 mm 0 W/m2
20:55 -10.9 °C -13.2 °C 34452.6 hPa SSE 5.1 km/h 12.9 km/h 76 % 0 mm 0 W/m2
21:00 -10.9 °C -13.1 °C 34452.6 hPa SE 5.1 km/h 12.9 km/h 77 % 0 mm 0 W/m2
21:05 -11.1 °C -13.2 °C 34452.6 hPa SSE 7.7 km/h 12.9 km/h 78 % 0 mm 0 W/m2
21:10 -11.1 °C -13.2 °C 34462.7 hPa South 5.1 km/h 12.9 km/h 78 % 0 mm 0 W/m2
21:15 -11.2 °C -13.2 °C 34462.7 hPa South 5.1 km/h 12.9 km/h 78 % 0 mm 0 W/m2
21:20 -11.2 °C -13.2 °C 34462.7 hPa South 7.7 km/h 12.9 km/h 79 % 0 mm 0 W/m2
21:25 -11.3 °C -13.2 °C 34476.3 hPa South 7.7 km/h 12.9 km/h 79 % 0 mm 0 W/m2
21:30 -11.3 °C -13.1 °C 34476.3 hPa SSE 10.3 km/h 12.9 km/h 80 % 0 mm 0 W/m2
21:35 -11.3 °C -13.2 °C 34476.3 hPa SSE 12.9 km/h 15.6 km/h 79 % 0 mm 0 W/m2
21:40 -11.2 °C -13.1 °C 34476.3 hPa South 10.3 km/h 18.2 km/h 79 % 0 mm 0 W/m2
21:45 -11 °C -13.1 °C 34476.3 hPa SSW 10.3 km/h 20.8 km/h 78 % 0 mm 0 W/m2
21:50 -10.9 °C -13 °C 34476.3 hPa SSE 12.9 km/h 28.5 km/h 78 % 0 mm 0 W/m2
21:55 -10.9 °C -13 °C 34476.3 hPa SSW 15.6 km/h 28.5 km/h 78 % 0 mm 0 W/m2
22:00 -10.9 °C -12.9 °C 34486.4 hPa South 18.2 km/h 25.9 km/h 78 % 0 mm 0 W/m2
22:10 -10.9 °C -12.9 °C 34486.4 hPa South 10.3 km/h 28.5 km/h 79 % 0 mm 0 W/m2
22:15 -10.9 °C -12.8 °C 34486.4 hPa South 15.6 km/h 28.5 km/h 80 % 0 mm 0 W/m2
22:20 -11 °C -12.8 °C 34486.4 hPa South 15.6 km/h 25.9 km/h 80 % 0 mm 0 W/m2
22:25 -11 °C -12.8 °C 34486.4 hPa South 15.6 km/h 25.9 km/h 80 % 0 mm 0 W/m2
22:30 -11.1 °C -12.8 °C 34486.4 hPa South 15.6 km/h 25.9 km/h 81 % 0 mm 0 W/m2
22:35 -11.1 °C -12.8 °C 34486.4 hPa SSE 10.3 km/h 23.3 km/h 81 % 0 mm 0 W/m2
22:40 -11.1 °C -12.8 °C 34486.4 hPa South 10.3 km/h 23.3 km/h 82 % 0 mm 0 W/m2
22:45 -11.2 °C -12.8 °C 34496.6 hPa SSW 7.7 km/h 23.3 km/h 82 % 0 mm 0 W/m2
22:50 -11.2 °C -12.8 °C 34486.4 hPa SSW 10.3 km/h 23.3 km/h 82 % 0 mm 0 W/m2
22:55 -11.2 °C -12.8 °C 34496.6 hPa South 5.1 km/h 18.2 km/h 83 % 0 mm 0 W/m2
23:00 -11.3 °C -12.8 °C 34496.6 hPa South 10.3 km/h 20.8 km/h 83 % 0 mm 0 W/m2
23:05 -11.3 °C -12.8 °C 34496.6 hPa South 12.9 km/h 20.8 km/h 83 % 0 mm 0 W/m2
23:10 -11.4 °C -12.8 °C 34496.6 hPa South 7.7 km/h 15.6 km/h 84 % 0 mm 0 W/m2
23:15 -11.4 °C -12.9 °C 34496.6 hPa SSE 7.7 km/h 15.6 km/h 84 % 0 mm 0 W/m2
23:20 -11.4 °C -12.9 °C 34496.6 hPa South 10.3 km/h 15.6 km/h 84 % 0 mm 0 W/m2
23:25 -11.5 °C -12.9 °C 34496.6 hPa SSW 10.3 km/h 12.9 km/h 85 % 0 mm 0 W/m2
23:30 -11.5 °C -12.8 °C 34496.6 hPa SSW 12.9 km/h 15.6 km/h 85 % 0 mm 0 W/m2
23:35 -11.5 °C -12.8 °C 34496.6 hPa SSW 18.2 km/h 23.3 km/h 85 % 0 mm 0 W/m2
23:40 -11.4 °C -12.7 °C 34496.6 hPa SSW 12.9 km/h 23.3 km/h 86 % 0 mm 0 W/m2
23:45 -11.4 °C -12.7 °C 34496.6 hPa South 15.6 km/h 20.8 km/h 86 % 0 mm 0 W/m2
23:50 -11.4 °C -12.7 °C 34496.6 hPa South 5.1 km/h 20.8 km/h 86 % 0 mm 0 W/m2
23:55 -11.4 °C -12.7 °C 34496.6 hPa South 7.7 km/h 20.8 km/h 86 % 0 mm 0 W/m2
Avec l'autorisation de Weather Underground - 1.75 mb